CW2840 Weather Reports


Display with metric or nautical units.
time (UTC)temp
F
wind
direction
speed
MPH
gust
MPH
rain 1hr
in
rain 24hr
in
rain mn
in
humidity
%
barometer
mb
20260901195731 89 31 3.0 9.0 0.00 0.00 0.00 61 1013.9
20260901194228 89 338 2.0 5.0 0.00 0.00 0.00 62 1014.5
20260901192730 89 8 2.0 7.0 0.00 0.00 0.00 62 1014.6
20260901191226 89 353 2.0 5.0 0.00 0.00 0.00 63 1014.6
20260901185725 88 347 2.0 7.0 0.00 0.00 0.00 62 1014.2
20260901184221 88 358 1.0 7.0 0.00 0.00 0.00 63 1014.4
20260901182723 88 237 3.0 9.0 0.00 0.00 0.00 64 1014.7
20260901181220 88 348 2.0 7.0 0.00 0.00 0.00 64 1014.8
20260901175721 87 337 2.0 5.0 0.00 0.00 0.00 65 1015.0
20260901174219 87 4 3.0 5.0 0.00 0.00 0.00 65 1015.5
20260901172721 87 317 1.0 5.0 0.00 0.00 0.00 65 1015.7
20260901171915 86 313 3.0 7.0 0.00 0.00 0.00 66 1016.0
20260901165721 86 345 2.0 5.0 0.00 0.00 0.00 65 1016.0
20260901164218 86 0 3.0 11.0 0.00 0.00 0.00 64 1016.1
20260901162719 87 274 3.0 11.0 0.00 0.00 0.00 65 1016.2
20260901161218 87 353 5.0 14.0 0.00 0.00 0.00 65 1016.1
20260901160421 86 320 3.0 11.0 0.00 0.00 0.00 66 1016.0
20260901154217 86 347 5.0 11.0 0.00 0.00 0.00 67 1016.0
20260901152718 85 357 2.0 9.0 0.00 0.00 0.00 70 1016.0
20260901151216 85 0 1.0 9.0 0.00 0.00 0.00 70 1016.2
20260901145717 85 347 4.0 9.0 0.00 0.00 0.00 72 1016.2
20260901144215 85 0 2.0 7.0 0.00 0.00 0.00 72 1016.2
20260901142716 84 358 4.0 11.0 0.00 0.00 0.00 74 1016.1
20260901141215 82 3 4.0 9.0 0.00 0.00 0.00 79 1016.3
20260901135716 81 338 0.0 7.0 0.00 0.00 0.00 80 1016.3
20260901134214 80 14 3.0 5.0 0.00 0.00 0.00 81 1016.5
20260901132717 80 0 4.0 7.0 0.00 0.00 0.00 83 1016.2
20260901131212 80 6 1.0 7.0 0.00 0.00 0.00 84 1016.0
20260901125714 79 47 3.0 5.0 0.00 0.00 0.00 85 1015.9
20260901124209 79 111 3.0 5.0 0.00 0.00 0.00 85 1015.7
20260901122710 79 111 2.0 5.0 0.00 0.00 0.00 85 1015.7
20260901121204 79 121 1.0 5.0 0.00 0.00 0.00 84 1015.3
20260901115704 79 123 2.0 3.0 0.00 0.00 0.00 84 1015.3
20260901114205 79 123 2.0 5.0 0.00 0.00 0.00 84 1015.3
20260901112704 79 127 1.0 2.0 0.00 0.00 0.00 84 1015.3
20260901111204 79 127 1.0 2.0 0.00 0.00 0.00 84 1015.3
20260901105703 79 127 0.0 3.0 0.00 0.00 0.00 85 1015.2
20260901104203 79 127 0.0 2.0 0.00 0.00 0.00 85 1015.1
20260901102703 79 127 0.0 0.0 0.00 0.00 0.00 85 1014.9
20260901101202 79 127 0.0 2.0 0.00 0.00 0.00 85 1015.0
20260901095703 79 127 0.0 0.0 0.00 0.00 0.00 84 1015.0
20260901094202 79 127 0.0 2.0 0.00 0.00 0.00 84 1015.1
20260901092704 79 127 0.0 0.0 0.00 0.00 0.00 84 1015.0
20260901091202 79 127 0.0 0.0 0.00 0.00 0.00 84 1015.1
20260901085704 80 127 0.0 2.0 0.00 0.00 0.00 83 1015.1
20260901085559 80 127 0.0 2.0 0.00 0.00 0.00 83 1015.2
20260901082704 80 127 1.0 2.0 0.00 0.00 0.00 83 1015.1
20260901081202 80 127 0.0 2.0 0.00 0.00 0.00 83 1015.1
20260901075704 80 127 0.0 2.0 0.00 0.00 0.00 83 1015.3
20260901074202 80 127 2.0 2.0 0.00 0.00 0.00 83 1015.4
20260901072705 81 127 0.0 2.0 0.00 0.00 0.00 82 1015.3
20260901071202 81 127 0.0 2.0 0.00 0.00 0.00 82 1015.3
20260901065705 82 127 0.0 2.0 0.00 0.00 0.00 81 1015.3
20260901064202 82 127 0.0 2.0 0.00 0.00 0.00 80 1015.5
20260901062703 82 127 0.0 2.0 0.00 0.00 0.00 79 1015.5
20260901061203 82 127 0.0 2.0 0.00 0.00 0.00 79 1015.5
20260901060402 83 127 1.0 3.0 0.00 0.00 0.00 78 1015.6
20260901054203 83 127 1.0 2.0 0.00 0.00 0.00 77 1015.5
20260901052703 83 127 0.0 3.0 0.00 0.00 0.00 77 1015.3
20260901051202 83 127 0.0 3.0 0.00 0.00 0.00 76 1015.4
20260901045703 84 127 1.0 3.0 0.00 0.00 0.00 76 1015.2
20260901044201 84 127 2.0 5.0 0.00 0.00 0.00 75 1015.2
20260901042705 84 130 3.0 7.0 0.00 0.00 0.00 74 1015.3
20260901041202 85 120 4.0 5.0 0.00 0.00 0.00 73 1015.3
20260901035703 85 133 2.0 9.0 0.00 0.00 0.00 72 1015.2
20260901034201 86 121 5.0 22.0 0.00 0.00 0.00 70 1015.2
20260901033403 86 137 3.0 7.0 0.00 0.00 0.00 68 1014.8
20260901031201 86 157 2.0 5.0 0.00 0.00 0.00 68 1014.6
20260901025702 87 157 2.0 7.0 0.00 0.00 0.00 66 1014.3
20260901024902 87 154 4.0 9.0 0.00 0.00 0.00 66 1014.2
20260901022701 87 147 2.0 3.0 0.00 0.00 0.00 66 1014.0
20260901021159 88 147 2.0 5.0 0.00 0.00 0.00 65 1013.8
20260901015701 88 147 3.0 5.0 0.00 0.00 0.00 64 1013.7
20260901014159 88 149 2.0 7.0 0.00 0.00 0.00 63 1013.6
20260901012700 89 144 3.0 5.0 0.00 0.00 0.00 61 1013.5
20260901011159 90 133 2.0 9.0 0.00 0.00 0.00 59 1013.5
20260901005700 90 159 3.0 9.0 0.00 0.00 0.00 58 1013.4
20260901004907 91 151 3.0 9.0 0.00 0.00 0.00 57 1013.4
20260901002659 91 118 3.0 9.0 0.00 0.00 0.00 55 1013.6
20260901001158 92 199 3.0 13.0 0.00 0.00 0.00 54 1013.6
20260831235658 92 151 4.0 11.0 0.00 0.00 0.00 54 1013.7
20260831234156 92 124 2.0 14.0 0.00 0.00 0.00 54 1013.6
20260831232657 93 158 6.0 11.0 0.00 0.00 0.00 53 1013.6
20260831231155 93 165 5.0 13.0 0.00 0.00 0.00 52 1013.6
20260831225657 94 123 4.0 14.0 0.00 0.00 0.00 50 1013.5
20260831224154 94 117 6.0 13.0 0.00 0.00 0.00 50 1013.6
20260831222656 95 165 8.0 18.0 0.00 0.00 0.00 50 1013.5
20260831221154 96 166 4.0 16.0 0.00 0.00 0.00 50 1013.5
20260831215653 95 144 4.0 16.0 0.00 0.00 0.00 49 1013.5
20260831214851 95 166 6.0 20.0 0.00 0.00 0.00 51 1013.7
20260831212655 94 159 9.0 22.0 0.00 0.00 0.00 53 1013.9
20260831211153 94 179 13.0 24.0 0.00 0.00 0.00 52 1013.9
20260831210358 94 138 7.0 18.0 0.00 0.00 0.00 52 1014.1
20260831204152 95 121 4.0 11.0 0.00 0.00 0.00 47 1014.2
20260831203404 97 113 5.0 11.0 0.00 0.00 0.00 45 1014.3
20260831201152 97 109 2.0 9.0 0.00 0.00 0.00 47 1014.5